Orbital Elements at Epoch 2459000.5 (2020-May-31.0) TDB
Reference: JPL 26 (heliocentric ecliptic J2000)
Element | Value | Uncertainty (1-sigma) | Units |
e | .1876986784063086 | 2.8643e-08 | |
a | 2.289065738552939 | 8.1754e-09 | au |
q | 1.859411124641392 | 6.6633e-08 | au |
i | 2.802803929071004 | 3.6488e-06 | deg |
node | 242.1098536873114 | 7.1899e-05 | deg |
peri | 116.8510193486146 | 7.2729e-05 | deg |
M | 204.6900556462506 | 1.1609e-05 | deg |
tp | 2459546.235980565033 (2021-Nov-27.73598057) | 4.2205e-05 | TDB |
period | 1264.986307354046 3.46 | 6.7768e-06 1.855e-08 | d yr |
n | .2845880606826542 | 1.5246e-09 | deg/d |
Q | 2.718720352464487 | 9.7099e-09 | au |
|
| | Orbit Determination Parameters
Additional Information
|